Regional Weather Roundup
Issued by NWS

Home | Current Version | Previous Version | Graphics & Text | Print | Product List | Glossary On
Versions: 1 2 3 4 5 6 7 8 9 10 11 12 13 14 15 16 17 18 19 20 21 22 23 24 25 26 27 28 29 30 31 32 33 34 35 36 37 38 39 40 41 42 43 44 45 46 47 48 49 50
000
ASUS43 KFSD 290410
RWRSD

WEATHER ROUNDUP FOR SOUTH DAKOTA
NATIONAL WEATHER SERVICE SIOUX FALLS SD
1100 PM CDT TUE JUL 28 2015

NOTE: "FAIR" INDICATES FEW OR NO CLOUDS BELOW 12,000 FEET WITH NO
SIGNIFICANT WEATHER AND/OR OBSTRUCTIONS TO VISIBILITY.


SDZ001>005-009-010-012>017-290500-
NORTHWEST AND NORTH CENTRAL SOUTH DAKOTA

CITY           SKY/WX    TMP DP  RH WIND       PRES   REMARKS
BUFFALO          N/A     57  37  47 W14       30.04R
FAITH            N/A     64  40  41 W15       30.08R
MOBRIDGE       CLEAR     67  48  50 W12       29.95R
$$

SDZ012>016-024>037-041>051-057-063-072>074-290500-
SOUTHWEST AND SOUTH CENTRAL SOUTH DAKOTA

CITY           SKY/WX    TMP DP  RH WIND       PRES   REMARKS
RAPID CTY ARPT CLEAR     59  45  59 NW13      30.16R
PIERRE         CLEAR     67  50  54 W9        30.03R
CUSTER         CLEAR     56  35  45 N6        30.26R
ELLSWORTH AFB  CLEAR     60  44  54 NW13      30.16R
PHILIP         CLEAR     61  48  62 CALM      30.10R
PINE RIDGE     CLEAR     52  44  74 E5        30.18R
SPEARFISH      FAIR      57  39  51 SW10      30.21R
WINNER         FAIR      66  52  60 W6        30.09R
$$

SDZ004>011-016>023-039-040-290500-
NORTHEAST SOUTH DAKOTA

CITY           SKY/WX    TMP DP  RH WIND       PRES   REMARKS
ABERDEEN       CLEAR     60  52  74 SW9       29.93S
WATERTOWN      CLEAR     68  52  56 W12       29.96R
BROOKINGS      CLEAR     64  54  68 SW3       30.02R
SISSETON         N/A     68  50  52 W12       29.89R
$$

SDZ017-020-022-023-036>040-048>070-290500-
SOUTHEAST SOUTH DAKOTA

CITY           SKY/WX    TMP DP  RH WIND       PRES   REMARKS
SIOUX FALLS    CLEAR     67  59  75 CALM      30.03R
HURON          CLEAR     61  55  81 W7        29.99R
CHAMBERLAIN    CLEAR     64  51  63 W5        30.05R
MITCHELL       CLEAR     66  54  65 W7        30.02R
YANKTON        CLEAR     66  54  63 NW8       30.02R
$$

ABBREVIATIONS USED IN REMARKS
   TC - TEMPERATURE IN CELSIUS
  WCI - WIND CHILL INDEX
   HX - HEAT INDEX
  VSB - VISIBILITY



USA.gov is the U.S. government's official web portal to all federal, state and local government web resources and services.